Regional Weather Roundup
Issued by NWS

Home | Current Version | Previous Version | Text Only | Print | Product List | Glossary Off
Versions: 1 2 3 4 5 6 7 8 9 10 11 12 13 14 15 16 17 18 19 20 21 22 23 24 25 26 27 28 29 30 31 32 33 34 35 36 37 38 39 40 41 42 43 44 45 46 47 48 49 50

000
ASUS43 KFSD 292210
RWRSD

WEATHER ROUNDUP FOR SOUTH DAKOTA
NATIONAL WEATHER SERVICE SIOUX FALLS SD
500 PM CDT SAT AUG 29 2015

NOTE: "FAIR" INDICATES FEW OR NO CLOUDS BELOW 12,000 FEET WITH NO
SIGNIFICANT WEATHER AND/OR OBSTRUCTIONS TO VISIBILITY.


SDZ001>005-009-010-012>017-292300-
NORTHWEST AND NORTH CENTRAL SOUTH DAKOTA

CITY           SKY/WX    TMP DP  RH WIND       PRES   REMARKS
BUFFALO          N/A     95  51  22 SE13      29.85F
MOBRIDGE       SUNNY     89  66  46 S12       29.87F
$$

SDZ012>016-024>037-041>051-057-063-072>074-292300-
SOUTHWEST AND SOUTH CENTRAL SOUTH DAKOTA

CITY           SKY/WX    TMP DP  RH WIND       PRES   REMARKS
RAPID CTY ARPT SUNNY     93  51  23 S12       29.96F
PIERRE         SUNNY     94  61  33 S13       29.89F
CUSTER         SUNNY     85  36  17 S3        30.15F
ELLSWORTH AFB  SUNNY     94  49  21 S16       29.95F
PHILIP         SUNNY     94  57  28 S8        29.91F
PINE RIDGE     SUNNY     93  41  16 S12       30.00F
WINNER         FAIR      89  65  44 SE8       29.96F
$$

SDZ004>011-016>023-039-040-292300-
NORTHEAST SOUTH DAKOTA

CITY           SKY/WX    TMP DP  RH WIND       PRES   REMARKS
ABERDEEN       SUNNY     84  72  67 S9        29.91F
WATERTOWN      SUNNY     79  66  64 S10       29.97F
BROOKINGS      MOSUNNY   75  64  69 S10       30.01F
SISSETON         N/A     84  66  54 SW10      29.91F
$$

SDZ017-020-022-023-036>040-048>070-292300-
SOUTHEAST SOUTH DAKOTA

CITY           SKY/WX    TMP DP  RH WIND       PRES   REMARKS
SIOUX FALLS    CLOUDY    73  63  70 S9        30.01F
HURON          SUNNY     83  70  64 S14G22    29.93F
CHAMBERLAIN    SUNNY     85  69  59 S8        29.95S
MITCHELL       SUNNY     81  69  67 S12       29.97F
YANKTON        SUNNY     77  66  69 SE9       29.99F
$$

ABBREVIATIONS USED IN REMARKS
   TC - TEMPERATURE IN CELSIUS
  WCI - WIND CHILL INDEX
   HX - HEAT INDEX
  VSB - VISIBILITY




USA.gov is the U.S. government's official web portal to all federal, state and local government web resources and services.